Terminal Aerodrome Forecast
Issued by NWS Charleston, WV

Current Version | Previous Version | Graphics & Text | Print | Product List | Glossary On
Versions: 1 2 3 4 5 6 7 8 9 10 11 12 13 14 15 16 17 18 19 20 21 22 23 24 25 26 27 28
000
FTUS41 KRLX 152100 AAD
TAFBKW
TAF AMD
KBKW 152112Z 1521/1618 33012KT P6SM OVC015
     FM152200 32012KT P6SM OVC025
     FM152300 32010KT P6SM BKN040
     FM160300 33009KT P6SM SCT150
     FM160500 33008KT P6SM SCT250
     FM161500 02007KT P6SM SKC=

USA.gov is the U.S. government's official web portal to all federal, state and local government web resources and services.